Tracking 29892 objects as of 21-Nov-2024
HD Live streaming from Space Station
objects crossing your sky now

FENGYUN 1C DEB

Track FENGYUN 1C DEB now!
10-day predictions


NORAD ID: 29993
Int'l Code: 1999-025LT
Perigee: 845.5 km
Apogee: 901.5 km
Inclination: 98.8 °
Period: 102.3 minutes
Semi major axis: 7244 km
RCS: 0.1148 m2 (medium)
Launch date: May 10, 1999
Source: People's Republic of China (PRC)
Launch site: Taiyaun Space Center, China (TSC)

Note: This is SATELLITE DEBRIS
Your satellite tracking list
Your tracking list is empty




NASA's NSSDC Master Catalog

Two Line Element Set (TLE):
1 29993U 99025LT  24326.07164149  .00000123  00000-0  97598-4 0  9994
2 29993  98.8451   5.6610 0038684 323.6472  36.2071 14.07964932917363
Source of the keplerian elements: AFSPC